ORBCOMM FM27 [+]

Last updated on Fri Dec 29 2023 00:02:54 GMT+0000 (Greenwich Mean Time)

1 25481U 98053G 23361.89103393 .00001758 00000+0 66057-3 0 9993 2 25481 45.0062 288.7152 0001435 307.1382 52.9334 14.35020444320412
UTC large
Height (km)
Speed (km/s)
/
Latitude / Longitude
Inclination (degrees)
Orbital Period (minutes)
Azimuth
Elevation
Range (km)
Doppler Factor

Next 0 passes for location: London (51.5072 / 0.1276)

Sorry there are no passes over London.